Los Angeles, CA

12:40 PM PST on November 24, 2017 (GMT -0800)
Los Angeles International

Weather History for KLAX - February, 2012

Change the Weather History Date:

Monday, February 13, 2012

  Actual Average Record
Temperature  
Mean Temperature 56 °F 57 °F  
Max Temperature 60 °F 64 °F 85 °F (1985)
Min Temperature 51 °F 50 °F 35 °F (1948)
Degree Days  
Heating Degree Days 9 8  
Month to date heating degree days 74 104  
Since 1 July heating degree days 793 808  
Cooling Degree Days 0 0  
Month to date cooling degree days 0 0  
Year to date cooling degree days 10 4  
Growing Degree Days 4 (Base 50)    
Moisture  
Dew Point 45 °F    
Average Humidity 65    
Maximum Humidity 83    
Minimum Humidity 47    
Precipitation  
Precipitation T in 0.12 in 3.28 in (1954)
Month to date precipitation 0.03 1.45  
Year to date precipitation 1.22 4.16  
Since 1 July precipitation 4.22  
Sea Level Pressure  
Sea Level Pressure 29.97 in    
Wind  
Wind Speed 10 mph (West)    
Max Wind Speed 38 mph    
Max Gust Speed 43 mph    
Visibility 9 miles    
Events      
T = Trace of Precipitation, MM = Missing Value Source: NWS Daily Summary

Daily Weather History Graph

Daily Weather History Graph

Search for Another Location

Airport or City:

Trip Planner

Search our weather history database for the weather conditions in past years. The results will help you decide how hot, cold, wet, or windy it might be!

Date:

Astronomy

Feb. 13, 2012 Rise Set
Actual Time 6:40 AM PST 5:35 PM PST
Civil Twilight 6:15 AM PST 6:01 PM PST
Nautical Twilight 5:45 AM PST 6:30 PM PST
Astronomical Twilight 5:16 AM PST 6:59 PM PST
Moon No Moon Rise 10:04 AM PST (2/13)
Length of Visible Light 11h 46m
Length of Day
10h 54m
Waning Gibbous, 60% of the Moon is Illuminated
Feb 13
Waning Gibbous
Feb 14
Last Quarter
Feb 21
New
Feb 29
First Quarter
Mar 8
Full

Hourly Weather History & Observations

Time (PST) Temp. Dew Point Humidity Pressure Visibility Wind Dir Wind Speed Gust Speed Precip Events Conditions
12:53 AM 52.0 °F 46.9 °F 83% 30.02 in 10.0 mi East 3.5 mph - N/A   Scattered Clouds
1:46 AM 53.6 °F 48.2 °F 82% 30.03 in 10.0 mi Calm Calm - N/A   Overcast
1:53 AM 54.0 °F 48.0 °F 80% 30.03 in 10.0 mi Calm Calm - N/A   Overcast
2:53 AM 53.1 °F 48.0 °F 83% 30.02 in 10.0 mi Calm Calm - N/A   Overcast
3:44 AM 53.6 °F 48.2 °F 82% 30.01 in 10.0 mi East 3.5 mph - N/A   Overcast
3:53 AM 54.0 °F 48.0 °F 80% 30.01 in 10.0 mi East 4.6 mph - N/A   Overcast
4:53 AM 54.0 °F 48.0 °F 80% 30.00 in 10.0 mi Calm Calm - N/A   Overcast
5:53 AM 54.0 °F 48.0 °F 80% 30.01 in 10.0 mi Calm Calm - N/A   Overcast
6:53 AM 55.0 °F 48.0 °F 77% 30.01 in 10.0 mi Calm Calm - N/A   Overcast
7:04 AM 55.4 °F 46.4 °F 72% 30.01 in 10.0 mi Calm Calm - N/A   Overcast
7:53 AM 55.9 °F 46.9 °F 72% 30.03 in 10.0 mi Calm Calm - N/A   Overcast
8:19 AM 55.4 °F 46.4 °F 72% 30.03 in 10.0 mi Calm Calm - N/A   Overcast
8:53 AM 55.9 °F 48.0 °F 75% 30.02 in 10.0 mi SSW 5.8 mph - N/A   Overcast
9:26 AM 55.4 °F 46.4 °F 72% 30.02 in 8.0 mi SSW 6.9 mph - 0.00 in   Overcast
9:53 AM 55.9 °F 50.0 °F 80% 30.01 in 5.0 mi West 6.9 mph - 0.00 in   Overcast
10:40 AM 55.4 °F 50.0 °F 82% 30.01 in 7.0 mi West 10.4 mph - 0.00 in   Overcast
10:53 AM 55.9 °F 50.0 °F 80% 30.01 in 7.0 mi WNW 9.2 mph - 0.00 in   Mostly Cloudy
11:08 AM 55.4 °F 48.2 °F 77% 30.00 in 7.0 mi West 10.4 mph - N/A   Overcast
11:15 AM 55.4 °F 48.2 °F 77% 30.00 in 7.0 mi West 6.9 mph - N/A   Mostly Cloudy
11:53 AM 57.0 °F 46.0 °F 67% 29.99 in 7.0 mi West 12.7 mph - N/A   Mostly Cloudy
12:53 PM 57.0 °F 46.9 °F 69% 29.95 in 10.0 mi WSW 10.4 mph - N/A   Overcast
1:53 PM 57.9 °F 46.0 °F 65% 29.93 in 10.0 mi WSW 15.0 mph - N/A   Mostly Cloudy
2:13 PM 57.2 °F 41.0 °F 55% 29.93 in 10.0 mi West 20.7 mph - N/A   Mostly Cloudy
2:24 PM 57.2 °F 39.2 °F 51% 29.93 in 10.0 mi West 21.9 mph - N/A   Mostly Cloudy
2:53 PM 57.9 °F 37.9 °F 47% 29.92 in 10.0 mi West 17.3 mph - N/A   Mostly Cloudy
3:53 PM 57.9 °F 37.9 °F 47% 29.91 in 10.0 mi WSW 26.5 mph 35.7 mph N/A   Partly Cloudy
4:53 PM 55.9 °F 41.0 °F 57% 29.90 in 10.0 mi West 31.1 mph 42.6 mph N/A   Partly Cloudy
5:53 PM 55.0 °F 39.0 °F 55% 29.89 in 10.0 mi West 25.3 mph 40.3 mph N/A   Partly Cloudy
6:53 PM 54.0 °F 39.0 °F 57% 29.89 in 10.0 mi West 20.7 mph - N/A   Partly Cloudy
7:53 PM 54.0 °F 37.0 °F 53% 29.90 in 10.0 mi West 12.7 mph - N/A   Partly Cloudy
8:53 PM 53.1 °F 37.9 °F 57% 29.91 in 10.0 mi West 17.3 mph 26.5 mph N/A   Partly Cloudy
9:53 PM 52.0 °F 39.0 °F 61% 29.93 in 10.0 mi WNW 16.1 mph 24.2 mph N/A   Scattered Clouds
10:53 PM 51.1 °F 37.9 °F 61% 29.94 in 10.0 mi NNE 5.8 mph - N/A   Scattered Clouds
11:53 PM 51.1 °F 37.9 °F 61% 29.92 in 10.0 mi NW 8.1 mph - N/A   Mostly Cloudy